When you browse on this site, cookies collect data to enhance your experience and personalize the content and advertising you see.
Visit our Privacy Policy to learn more. By continuing to use the site, you agree to this use of cookies and data.
  • In Lithuania
  • List of Countries
  • For 7 days
  • Water Temperature
  • Satellite Maps
  • Weather Map
  • Weather Widgets
  • user-avatar
    Login

    Hourly Weather Tirana

    Today, 14 December, Friday

    Time Temperature Precipitation Wind Pressure Humidity
    00:00 +4°C° 0.5 mm 6 mps 752 mmHg 78%
    01:00 +6°C° 0.5 mm 5 mps 753 mmHg 79%
    02:00 +6°C° 0.6 mm 5 mps 752 mmHg 80%
    03:00 +6°C° 0.6 mm 5 mps 752 mmHg 82%
    04:00 +6°C° 0.6 mm 4 mps 752 mmHg 83%
    05:00 +6°C° 0.3 mm 5 mps 752 mmHg 83%
    06:00 +7°C° 0.3 mm 5 mps 752 mmHg 84%
    07:00 +7°C° 0.3 mm 5 mps 752 mmHg 85%
    08:00 +8°C° 0.4 mm 6 mps 752 mmHg 83%
    09:00 +9°C° 0.4 mm 6 mps 752 mmHg 81%
    10:00 +10°C° 0.4 mm 6 mps 752 mmHg 79%
    11:00 +11°C° 0.2 mm 7 mps 751 mmHg 77%
    12:00 +12°C° 0.2 mm 7 mps 751 mmHg 74%
    13:00 +14°C° 0.2 mm 7 mps 751 mmHg 71%
    14:00 +14°C° 0.3 mm 7 mps 751 mmHg 75%
    15:00 +12°C° 0.3 mm 7 mps 751 mmHg 78%
    16:00 +11°C° 0.3 mm 7 mps 751 mmHg 81%
    17:00 +10°C° 0.4 mm 7 mps 751 mmHg 81%
    18:00 +10°C° 0.4 mm 7 mps 751 mmHg 82%
    19:00 +10°C° 0.4 mm 7 mps 751 mmHg 82%
    20:00 +9°C° 0.3 mm 7 mps 751 mmHg 81%
    21:00 +9°C° 0.3 mm 7 mps 751 mmHg 81%
    22:00 +9°C° 0.3 mm 6 mps 751 mmHg 81%
    23:00 +9°C° 0.2 mm 6 mps 751 mmHg 80%

    Tomorrow, 15 December, Saturday

    Time Temperature Precipitation Wind Pressure Humidity
    00:00 +8°C° 0.2 mm 6 mps 751 mmHg 80%
    01:00 +8°C° 0.2 mm 6 mps 751 mmHg 79%
    02:00 +8°C° 0.2 mm 5 mps 751 mmHg 79%
    03:00 +8°C° 0.2 mm 5 mps 750 mmHg 79%
    04:00 +8°C° 0.2 mm 5 mps 750 mmHg 79%
    05:00 +8°C° 0.3 mm 5 mps 750 mmHg 79%
    06:00 +8°C° 0.3 mm 6 mps 750 mmHg 79%
    07:00 +9°C° 0.3 mm 6 mps 750 mmHg 79%
    08:00 +9°C° 0.7 mm 6 mps 750 mmHg 78%
    09:00 +10°C° 0.7 mm 6 mps 751 mmHg 78%
    10:00 +10°C° 0.7 mm 6 mps 751 mmHg 77%
    11:00 +12°C° 1.1 mm 5 mps 751 mmHg 75%
    12:00 +13°C° 1.1 mm 5 mps 750 mmHg 74%
    13:00 +13°C° 1.1 mm 5 mps 750 mmHg 72%
    14:00 +13°C° 1 mm 4 mps 750 mmHg 75%
    15:00 +12°C° 1 mm 4 mps 750 mmHg 77%
    16:00 +12°C° 1 mm 4 mps 750 mmHg 80%
    17:00 +11°C° 1.7 mm 4 mps 750 mmHg 82%
    18:00 +11°C° 1.7 mm 4 mps 750 mmHg 85%
    19:00 +11°C° 1.7 mm 4 mps 751 mmHg 87%
    20:00 +10°C° 2.4 mm 4 mps 751 mmHg 88%
    21:00 +10°C° 2.4 mm 4 mps 751 mmHg 88%
    22:00 +10°C° 2.4 mm 4 mps 751 mmHg 88%
    23:00 +10°C° 2.1 mm 4 mps 751 mmHg 90%

    Day after tomorrow, 16 December, Sunday

    Time Temperature Precipitation Wind Pressure Humidity
    00:00 +9°C° 2.1 mm 5 mps 751 mmHg 91%
    01:00 +8°C° 2.1 mm 5 mps 751 mmHg 92%
    02:00 +8°C° 1.5 mm 5 mps 751 mmHg 93%
    03:00 +8°C° 1.5 mm 6 mps 751 mmHg 94%
    04:00 +8°C° 1.5 mm 6 mps 751 mmHg 95%
    05:00 +8°C° 0.8 mm 5 mps 751 mmHg 95%
    06:00 +7°C° 0.8 mm 5 mps 751 mmHg 94%
    07:00 +7°C° 0.8 mm 4 mps 751 mmHg 93%
    08:00 +7°C° 0.2 mm 4 mps 752 mmHg 91%
    09:00 +7°C° 0.2 mm 4 mps 752 mmHg 88%
    10:00 +9°C° 0.2 mm 3 mps 752 mmHg 86%
    11:00 +8°C° 0.1 mm 4 mps 752 mmHg 83%
    12:00 +8°C° 0.1 mm 4 mps 753 mmHg 80%
    13:00 +8°C° 0.1 mm 4 mps 753 mmHg 77%
    14:00 +9°C° 0 mm 3 mps 753 mmHg 78%
    15:00 +9°C° 0 mm 3 mps 753 mmHg 79%
    16:00 +8°C° 0 mm 3 mps 754 mmHg 80%
    17:00 +8°C° 0 mm 3 mps 754 mmHg 81%
    18:00 +7°C° 0 mm 3 mps 755 mmHg 82%
    19:00 +7°C° 0 mm 3 mps 755 mmHg 83%
    20:00 +5°C° 0 mm 3 mps 755 mmHg 83%
    21:00 +5°C° 0 mm 3 mps 756 mmHg 82%
    22:00 +5°C° 0 mm 3 mps 756 mmHg 82%
    23:00 +6°C° 0 mm 2 mps 756 mmHg 82%

    17 December, Monday

    Time Temperature Precipitation Wind Pressure Humidity
    00:00 +6°C° 0 mm 2 mps 756 mmHg 81%
    01:00 +6°C° 0 mm 2 mps 756 mmHg 81%
    02:00 +6°C° 0 mm 2 mps 756 mmHg 81%
    03:00 +6°C° 0 mm 2 mps 756 mmHg 80%
    04:00 +6°C° 0 mm 2 mps 756 mmHg 80%
    05:00 +7°C° 0 mm 1 mps 756 mmHg 79%
    06:00 +8°C° 0 mm 1 mps 756 mmHg 79%
    07:00 +8°C° 0 mm 1 mps 756 mmHg 78%
    08:00 +9°C° 0 mm 1 mps 756 mmHg 76%
    09:00 +10°C° 0 mm 1 mps 756 mmHg 73%
    10:00 +11°C° 0 mm 1 mps 757 mmHg 71%
    11:00 +11°C° 0 mm 1 mps 756 mmHg 67%
    12:00 +12°C° 0 mm 1 mps 756 mmHg 64%
    13:00 +13°C° 0 mm 1 mps 756 mmHg 61%
    14:00 +12°C° 0 mm 1 mps 756 mmHg 65%
    15:00 +11°C° 0 mm 1 mps 756 mmHg 69%
    16:00 +9°C° 0 mm 0 mps 756 mmHg 73%
    17:00 +10°C° 0.3 mm 1 mps 756 mmHg 74%
    18:00 +10°C° 0.3 mm 1 mps 756 mmHg 75%
    19:00 +9°C° 0.3 mm 1 mps 757 mmHg 76%
    20:00 +9°C° 0.2 mm 1 mps 757 mmHg 77%
    21:00 +8°C° 0.2 mm 2 mps 757 mmHg 78%
    22:00 +8°C° 0.2 mm 2 mps 757 mmHg 79%
    23:00 +8°C° 0.1 mm 2 mps 757 mmHg 79%

    18 December, Tuesday

    Time Temperature Precipitation Wind Pressure Humidity
    00:00 +8°C° 0.1 mm 2 mps 756 mmHg 79%
    01:00 +8°C° 0.1 mm 2 mps 756 mmHg 79%
    02:00 +8°C° 0.3 mm 3 mps 756 mmHg 79%
    03:00 +8°C° 0.3 mm 3 mps 756 mmHg 80%
    04:00 +7°C° 0.3 mm 4 mps 756 mmHg 80%
    05:00 +7°C° 0.4 mm 4 mps 756 mmHg 80%
    06:00 +7°C° 0.4 mm 5 mps 756 mmHg 81%
    07:00 +6°C° 0.4 mm 5 mps 756 mmHg 81%
    08:00 +7°C° 0.1 mm 6 mps 756 mmHg 79%
    09:00 +7°C° 0.1 mm 6 mps 757 mmHg 76%
    10:00 +8°C° 0.1 mm 6 mps 757 mmHg 73%
    11:00 +8°C° 0 mm 6 mps 757 mmHg 71%
    12:00 +8°C° 0 mm 6 mps 757 mmHg 69%
    13:00 +9°C° 0 mm 6 mps 756 mmHg 67%
    14:00 +8°C° 0 mm 6 mps 757 mmHg 69%
    15:00 +7°C° 0 mm 6 mps 757 mmHg 70%
    16:00 +7°C° 0 mm 6 mps 757 mmHg 72%
    17:00 +5°C° 0 mm 6 mps 758 mmHg 73%
    18:00 +4°C° 0 mm 6 mps 758 mmHg 75%
    19:00 +3°C° 0 mm 6 mps 759 mmHg 76%
    20:00 +3°C° 0 mm 6 mps 759 mmHg 75%
    21:00 +3°C° 0 mm 6 mps 760 mmHg 75%
    22:00 +3°C° 0 mm 5 mps 760 mmHg 74%
    23:00 +2°C° 0 mm 5 mps 760 mmHg 74%

    19 December, Wednesday

    Time Temperature Precipitation Wind Pressure Humidity
    00:00 +2°C° 0 mm 5 mps 760 mmHg 74%
    01:00 +2°C° 0 mm 5 mps 760 mmHg 74%
    02:00 +3°C° 0 mm 4 mps 760 mmHg 73%
    03:00 +1°C° 0 mm 4 mps 760 mmHg 72%
    04:00 +1°C° 0 mm 4 mps 760 mmHg 71%
    05:00 +2°C° 0 mm 3 mps 760 mmHg 70%
    06:00 +2°C° 0 mm 3 mps 760 mmHg 68%
    07:00 +2°C° 0 mm 3 mps 761 mmHg 67%
    08:00 +4°C° 0 mm 3 mps 761 mmHg 63%
    09:00 +7°C° 0 mm 2 mps 761 mmHg 58%
    10:00 +9°C° 0 mm 2 mps 761 mmHg 54%
    11:00 +10°C° 0 mm 2 mps 760 mmHg 51%
    12:00 +12°C° 0 mm 2 mps 760 mmHg 48%
    13:00 +13°C° 0 mm 1 mps 760 mmHg 45%
    14:00 +12°C° 0 mm 1 mps 760 mmHg 51%
    15:00 +10°C° 0 mm 1 mps 760 mmHg 56%
    16:00 +9°C° 0 mm 1 mps 759 mmHg 61%
    17:00 +9°C° 0 mm 1 mps 760 mmHg 62%
    18:00 +8°C° 0 mm 1 mps 760 mmHg 63%
    19:00 +8°C° 0 mm 1 mps 760 mmHg 64%
    20:00 +7°C° 0 mm 1 mps 760 mmHg 62%
    21:00 +6°C° 0 mm 2 mps 760 mmHg 61%
    22:00 +6°C° 0 mm 2 mps 760 mmHg 60%
    23:00 +6°C° 0 mm 2 mps 760 mmHg 58%
    Show more